#timestamp,LO_Frequency,Hit,StdDev 
1686747615.5,286046999.4,N
1686747635.3,286046999.3,N
1686747655.2,286046999.0,N
1686747675.0,286046998.3,N
1686747675.9,286046998.3,N
1686747695.8,286046998.2,N
1686747715.6,286046998.6,N
1686747735.4,286046998.4,N
1686747755.3,286046998.7,N
1686747775.1,286046998.4,N
1686747795.8,286046999.1,N
1686747815.7,286046998.3,N
1686747835.5,286046998.6,N
1686747855.4,286046998.4,N
1686747875.2,286047001.0,N
1686747895.0,286047000.0,N
1686747895.9,286047000.0,N
1686747915.8,286046999.8,N
1686747935.6,286047000.3,N
1686747955.4,286047002.8,N
1686747975.3,286047000.5,N
1686747995.1,286047000.7,N
1686748015.9,286047002.8,N
1686748035.7,286046999.7,N
1686748055.5,286046999.8,N
1686748075.4,286047000.3,N
1686748095.2,286047000.5,N
1686748115.0,286047001.0,N
1686748115.9,286047001.0,N
1686748135.8,286047001.0,N
1686748155.6,286047001.0,N
1686748175.5,286047000.5,N
1686748195.3,286047000.3,N
1686748215.1,286046999.9,N
1686748235.9,286047000.0,N
1686748255.7,286047000.8,N
1686748275.5,286047001.2,N
1686748295.4,286047001.2,N
1686748315.2,286047000.6,N
1686748335.1,286047001.0,N
1686748336.0,286047001.0,N
1686748355.8,286047001.1,N
1686748375.6,286047001.1,N
1686748395.5,286046998.6,N
1686748415.3,286046998.1,N
1686748435.2,286047000.3,N
1686748455.0,286047000.9,N
1686748455.9,286047000.9,N
1686748475.0,286047000.4,N
1686748475.9,286047000.4,N
1686748495.7,286046999.8,N
1686748515.6,286047000.4,N
1686748535.4,286047000.3,N
1686748555.3,286047000.5,N
1686748575.1,286047001.2,N
1686748595.8,286047000.1,N
1686748615.7,286047000.6,N
1686748635.5,286047001.0,N
1686748655.4,286047001.2,N
1686748675.2,286047000.0,N
1686748695.0,286047000.6,N
1686748695.9,286047000.6,N
1686748715.8,286047000.8,N
1686748735.6,286047000.1,N
1686748755.5,286046999.8,N
1686748775.3,286047002.6,Y
1686748795.1,286046999.7,P
1686748815.9,286046999.7,N
1686748835.7,286047002.6,P
1686748855.6,286047002.0,N
1686748875.4,286047001.5,N
1686748895.2,286047001.9,N
1686748915.1,286047002.1,N
1686748916.0,286047002.1,N
1686748935.8,286047002.8,N
1686748955.7,286047000.1,N
1686748975.5,286047000.3,N
1686748995.3,286047000.0,N
1686749015.2,286047000.0,N
1686749035.0,286047000.3,N
1686749035.9,286047000.3,N
1686749055.8,286047000.9,N
1686749075.6,286046999.9,N
1686749095.4,286047001.2,N
1686749115.3,286046998.2,N
1686749135.1,286047000.9,N
1686749155.8,286047000.5,N
1686749175.7,286047000.4,N
1686749195.5,286047000.1,N
1686749215.4,286047000.3,N
1686749235.2,286047000.1,N
1686749255.0,286047000.0,N
1686749255.9,286047000.0,N
1686749275.8,286047000.2,N
1686749295.6,286047000.4,N
1686749315.4,286047002.8,N
1686749335.3,286047000.9,N
1686749355.1,286047001.1,N
1686749375.9,286046999.8,N
1686749395.7,286047001.1,N
1686749415.6,286047000.4,N
1686749435.4,286046999.7,N
1686749455.2,286047002.2,N
1686749475.1,286047002.6,N
1686749476.0,286047002.6,N
1686749495.8,286047000.1,N
1686749515.6,286047000.2,N
1686749535.5,286046999.7,N
1686749555.3,286047002.3,N
1686749575.2,286047002.8,N
1686749595.9,286047002.8,N
1686749615.7,286047000.9,N
1686749635.6,286047000.9,N
1686749655.4,286047001.0,N
1686749675.3,286047000.8,N
1686749695.1,286047000.4,N
1686749696.0,286047000.4,N
1686749715.8,286046999.9,N
1686749735.7,286046999.7,N
1686749755.5,286047000.3,N
1686749775.3,286046999.9,N
1686749795.2,286046999.9,N
1686749815.0,286047002.8,N
1686749815.9,286047002.8,N
1686749835.8,286047000.1,N
1686749855.6,286047000.4,N
1686749875.4,286047002.1,N
1686749895.3,286047000.9,N
1686749915.1,286046999.8,N
1686749935.9,286047002.3,N
1686749955.7,286047001.4,N
1686749975.5,286047000.0,N
1686749995.4,286047001.1,N
1686750015.2,286047001.1,N
1686750035.0,286046998.9,N
1686750035.9,286046998.9,N
1686750055.8,286047000.9,N
1686750075.6,286047001.1,N
1686750095.5,286047000.6,N
1686750115.3,286046998.8,N
1686750135.1,286046998.8,N
1686750155.9,286047002.4,N
1686750175.7,286047002.8,N
1686750195.5,286047000.3,N
1686750215.4,286047000.8,N
1686750235.2,286046998.9,N
1686750255.0,286046998.7,N
1686750256.0,286046998.7,N
1686750275.0,286046996.5,N
1686750275.9,286046996.5,N
1686750295.8,286046996.5,N
1686750315.6,286046996.7,N
1686750335.4,286046996.7,N
1686750355.3,286046996.6,N
1686750375.1,286046995.0,N
1686750395.8,286046994.9,N
1686750415.7,286046995.0,N
1686750435.5,286046995.0,N
1686750455.4,286046996.5,N
1686750475.2,286046996.9,N
1686750495.0,286046995.1,N
1686750495.9,286046995.1,N
1686750515.8,286046995.7,N
1686750535.6,286046995.7,N
1686750555.5,286046995.2,N
1686750575.3,286046997.2,N
1686750595.1,286046997.5,N
1686750615.9,286046998.9,N
1686750635.7,286046997.1,N
1686750655.5,286046997.9,N
1686750675.4,286046995.0,N
1686750695.2,286046995.8,N
1686750715.1,286046995.4,N
1686750716.0,286046995.4,N
1686750735.8,286046995.5,Y
1686750755.6,286046998.5,P
1686750775.5,286046998.3,N
1686750795.3,286047001.0,N
1686750815.2,286047000.4,N
1686750835.9,286047000.3,N
1686750855.7,286047002.4,N
1686750875.6,286047000.6,N
1686750895.4,286046998.3,N
1686750915.3,286046998.8,N
1686750935.1,286046998.8,N
1686750936.0,286046998.8,N
1686750955.8,286046998.9,N
1686750975.7,286047000.7,N
1686750995.5,286046998.9,N
1686751015.3,286046998.8,N
1686751035.2,286046998.2,N
1686751055.0,286047000.4,N
1686751055.9,286047000.4,N
1686751075.8,286047001.0,N
1686751095.6,286047002.6,N
1686751115.4,286046998.7,N
1686751135.3,286046999.5,N
1686751155.1,286046997.0,N
1686751175.9,286046997.2,N
1686751195.7,286046998.4,N
